Flag for Mexico Weather past 2 weeks in Ojinaga, Chihuahua, Mexico

Now
63 °F

Clear.


Feels Like: 63 °F
Forecast: 70 / 89 °F
Wind: 7 mph from Northeast

Location: Marfa Municipal Airport

Current Time: Sep 16, 2014 at 4:15:08 AM

Latest Report: Sep 16, 2014 at 3:35 AM


Visibility: 10 mi

Pressure: 30.26 "Hg

Humidity: 94%

Dew point: 61 °F

Location of OjinagaLocation

Historic Weather in Ojinaga — Graph

°F

Ojinaga temperature yesterday

Maximum temperature yesterday: 75 °F (at 2:35 PM)
Minimum temperature yesterday: 61 °F (at 12:35 AM)
Average temperature yesterday: 66 °F

Past Weeks' High & Low Weather Summary

 TemperatureHumidityPressure
High95 °F (Sep 1, 3:35 PM)100% (Sep 6, 1:55 AM)30.35 "Hg (Sep 6, 1:55 AM)
Low48 °F (Sep 13, 6:35 AM)18% (Sep 1, 4:55 PM)30.03 "Hg (Sep 1, 5:15 PM)
Average69 °F73%30.17 "Hg
* Reported Sep 1 3:15 AM — Sep 16 3:15 AM, Ojinaga, Weather by CustomWeather, © 2014

Note: Actual official high and low records may vary slightly from our data, if they occured in-between our weather recording intervals... More about our weather records

Advertising

Ojinaga weather history for previous 24 hours

 ConditionsComfort  
Time TempWeatherWind HumidityBarometerVisibility
3:15 AM
Sep 16
63 °FPassing clouds.6 mph94%30.27 "Hg10 mi
2:55 AM63 °FPassing clouds.6 mph100%30.28 "Hg10 mi
2:35 AM63 °FPassing clouds.6 mph100%30.28 "Hg10 mi
1:55 AM63 °FClear.No wind100%30.29 "Hg10 mi
1:35 AM63 °FClear.No wind100%30.29 "Hg10 mi
1:15 AM64 °FClear.6 mph94%30.28 "Hg10 mi
12:55 AM64 °FClear.6 mph94%30.29 "Hg10 mi
12:35 AM64 °FClear.No wind94%30.29 "Hg10 mi
11:55 PM
Sep 15
64 °FPassing clouds.No wind94%30.29 "Hg10 mi
11:35 PM64 °FOvercast.No wind94%30.30 "Hg10 mi
11:15 PM64 °FPassing clouds.No wind94%30.30 "Hg10 mi
10:55 PM64 °FPassing clouds.3 mph94%30.30 "Hg10 mi
10:35 PM64 °FClear.6 mph94%30.30 "Hg10 mi
10:15 PM66 °FClear.8 mph88%30.29 "Hg10 mi
9:55 PM66 °FClear.7 mph88%30.29 "Hg10 mi
9:35 PM66 °FClear.6 mph88%30.28 "Hg10 mi
9:15 PM66 °FClear.6 mph88%30.28 "Hg10 mi
8:55 PM66 °FClear.6 mph88%30.28 "Hg10 mi
8:35 PM68 °FPassing clouds.6 mph83%30.27 "Hg10 mi
8:15 PM70 °FOvercast.7 mph78%30.26 "Hg10 mi
7:15 PM72 °FOvercast.6 mph73%30.24 "Hg10 mi
6:55 PM72 °FMostly cloudy.7 mph73%30.23 "Hg10 mi
6:35 PM73 °FMore clouds than sun.8 mph65%30.23 "Hg10 mi
6:15 PM73 °FMore clouds than sun.6 mph65%30.23 "Hg10 mi
5:55 PM73 °FMostly cloudy.6 mph65%30.23 "Hg10 mi
5:35 PM73 °FBroken clouds.6 mph65%30.23 "Hg10 mi
5:15 PM75 °FOvercast.8 mph61%30.23 "Hg10 mi
4:55 PM75 °FPartly sunny.7 mph61%30.23 "Hg10 mi
4:35 PM75 °FScattered clouds.7 mph61%30.23 "Hg10 mi
4:15 PM75 °FPartly sunny.9 mph61%30.23 "Hg10 mi
3:55 PM75 °FOvercast.3 mph61%30.23 "Hg10 mi
3:35 PM75 °FOvercast.7 mph61%30.23 "Hg10 mi
3:15 PM75 °FOvercast.5 mph61%30.23 "Hg10 mi
2:55 PM75 °FOvercast.5 mph61%30.24 "Hg10 mi
2:35 PM75 °FScattered clouds.No wind61%30.24 "Hg10 mi
2:15 PM73 °FSunny.3 mph65%30.24 "Hg10 mi
1:55 PM73 °FSunny.3 mph61%30.25 "Hg10 mi
1:35 PM73 °FPassing clouds.5 mph65%30.26 "Hg10 mi
1:15 PM72 °FPassing clouds.No wind69%30.26 "Hg10 mi
12:55 PM72 °FPassing clouds.7 mph69%30.27 "Hg10 mi
12:35 PM70 °FPassing clouds.7 mph73%30.28 "Hg10 mi
11:55 AM70 °FPartly sunny.5 mph73%30.30 "Hg10 mi
11:35 AM66 °FOvercast.3 mph78%30.30 "Hg10 mi
11:15 AM66 °FOvercast.6 mph78%30.30 "Hg10 mi
10:55 AM64 °FOvercast.6 mph83%30.30 "Hg10 mi
10:35 AM64 °FOvercast.5 mph83%30.30 "Hg10 mi
10:15 AM64 °FOvercast.6 mph78%30.30 "Hg10 mi
9:55 AM63 °FOvercast.6 mph83%30.29 "Hg10 mi
9:35 AM63 °FOvercast.No wind83%30.29 "Hg10 mi
9:15 AM63 °FOvercast.No wind83%30.29 "Hg10 mi
8:55 AM61 °FOvercast.3 mph94%30.28 "Hg10 mi
8:15 AM61 °FOvercast.No wind94%30.27 "Hg10 mi
7:55 AM61 °FOvercast.No wind88%30.27 "Hg10 mi
7:35 AM61 °FOvercast.No wind94%30.26 "Hg10 mi
7:15 AM61 °FOvercast.No wind94%30.26 "Hg10 mi
6:55 AM61 °FOvercast.No wind94%30.25 "Hg10 mi
6:35 AM61 °FOvercast.No wind94%30.25 "Hg10 mi
5:55 AM61 °FMostly cloudy.No wind94%30.24 "Hg10 mi
5:35 AM61 °FOvercast.No wind88%30.24 "Hg10 mi
5:15 AM61 °FOvercast.No wind88%30.24 "Hg10 mi
4:55 AM61 °FOvercast.No wind94%30.24 "Hg10 mi
4:35 AM61 °FMostly cloudy.No wind94%30.24 "Hg10 mi
4:15 AM61 °FMostly cloudy.No wind94%30.24 "Hg10 mi
Weather by CustomWeather, © 2014

See weather overviewHow to use our weather pages